When you browse on this site, cookies collect data to enhance your experience and personalize the content and advertising you see.
Visit our Privacy Policy to learn more. By continuing to use the site, you agree to this use of cookies and data.
  • In Latvia
  • List of Countries
  • For 7 days
  • Water Temperature
  • Weather Map
  • Weather Widgets
  • user-avatar
    Login

    Hourly Weather Bahmetevo

    Today, 24 August, Saturday

    Time Temperature Precipitation Wind Pressure Humidity
    00:00 +15°C° 0 mm 2 mps 752 mmHg 86%
    01:00 +15°C° 0 mm 2 mps 752 mmHg 86%
    02:00 +15°C° 0 mm 2 mps 752 mmHg 87%
    03:00 +14°C° 0 mm 2 mps 753 mmHg 84%
    04:00 +14°C° 0 mm 1 mps 753 mmHg 85%
    05:00 +14°C° 0 mm 1 mps 752 mmHg 86%
    06:00 +13°C° 0 mm 1 mps 752 mmHg 86%
    07:00 +15°C° 0 mm 1 mps 752 mmHg 80%
    08:00 +18°C° 0 mm 1 mps 752 mmHg 74%
    09:00 +20°C° 0 mm 1 mps 753 mmHg 67%
    10:00 +21°C° 0 mm 1 mps 753 mmHg 61%
    11:00 +22°C° 0 mm 1 mps 752 mmHg 56%
    12:00 +23°C° 0 mm 1 mps 752 mmHg 50%
    13:00 +24°C° 0 mm 1 mps 752 mmHg 48%
    14:00 +24°C° 0 mm 1 mps 752 mmHg 46%
    15:00 +25°C° 0 mm 2 mps 751 mmHg 44%
    16:00 +24°C° 0 mm 2 mps 751 mmHg 49%
    17:00 +24°C° 0 mm 2 mps 751 mmHg 54%
    18:00 +23°C° 0 mm 2 mps 750 mmHg 59%
    19:00 +20°C° 0 mm 2 mps 750 mmHg 63%
    20:00 +19°C° 0 mm 2 mps 750 mmHg 67%
    21:00 +17°C° 0 mm 2 mps 750 mmHg 71%
    22:00 +17°C° 0 mm 2 mps 750 mmHg 72%
    23:00 +16°C° 0 mm 2 mps 750 mmHg 74%

    Tomorrow, 25 August, Sunday

    Time Temperature Precipitation Wind Pressure Humidity
    00:00 +16°C° 0 mm 2 mps 750 mmHg 75%
    01:00 +16°C° 0 mm 3 mps 750 mmHg 79%
    02:00 +14°C° 0 mm 3 mps 750 mmHg 82%
    03:00 +14°C° 0 mm 3 mps 750 mmHg 86%
    04:00 +14°C° 0 mm 3 mps 750 mmHg 88%
    05:00 +13°C° 0 mm 3 mps 750 mmHg 91%
    06:00 +13°C° 0 mm 3 mps 750 mmHg 93%
    07:00 +14°C° 0 mm 3 mps 750 mmHg 87%
    08:00 +17°C° 0 mm 3 mps 751 mmHg 81%
    09:00 +18°C° 0 mm 3 mps 751 mmHg 75%
    10:00 +19°C° 0 mm 4 mps 751 mmHg 70%
    11:00 +20°C° 0 mm 4 mps 751 mmHg 64%
    12:00 +21°C° 0 mm 4 mps 751 mmHg 58%
    13:00 +21°C° 0 mm 4 mps 751 mmHg 57%
    14:00 +21°C° 0 mm 4 mps 752 mmHg 57%
    15:00 +22°C° 0 mm 4 mps 752 mmHg 56%
    16:00 +21°C° 0 mm 4 mps 752 mmHg 61%
    17:00 +20°C° 0 mm 3 mps 752 mmHg 65%
    18:00 +20°C° 0 mm 3 mps 752 mmHg 69%
    19:00 +19°C° 0 mm 3 mps 752 mmHg 73%
    20:00 +17°C° 0 mm 2 mps 752 mmHg 77%
    21:00 +16°C° 0 mm 2 mps 753 mmHg 82%
    22:00 +15°C° 0 mm 2 mps 753 mmHg 84%
    23:00 +15°C° 0 mm 2 mps 753 mmHg 86%

    Day after tomorrow, 26 August, Monday

    Time Temperature Precipitation Wind Pressure Humidity
    00:00 +14°C° 0 mm 2 mps 753 mmHg 88%
    01:00 +13°C° 0 mm 2 mps 754 mmHg 89%
    02:00 +13°C° 0 mm 2 mps 754 mmHg 90%
    03:00 +12°C° 0 mm 1 mps 754 mmHg 90%
    04:00 +12°C° 0 mm 1 mps 754 mmHg 91%
    05:00 +12°C° 0 mm 1 mps 754 mmHg 91%
    06:00 +11°C° 0 mm 0 mps 754 mmHg 91%
    07:00 +14°C° 0 mm 1 mps 754 mmHg 85%
    08:00 +15°C° 0 mm 1 mps 754 mmHg 78%
    09:00 +18°C° 0 mm 1 mps 754 mmHg 72%
    10:00 +17°C° 0 mm 0 mps 754 mmHg 66%
    11:00 +19°C° 0 mm 0 mps 754 mmHg 60%
    12:00 +20°C° 0 mm 0 mps 754 mmHg 54%
    13:00 +20°C° 0 mm 0 mps 754 mmHg 51%
    14:00 +23°C° 0 mm 1 mps 753 mmHg 49%
    15:00 +23°C° 0 mm 1 mps 753 mmHg 46%
    16:00 +23°C° 0 mm 1 mps 752 mmHg 49%
    17:00 +23°C° 0 mm 1 mps 752 mmHg 53%
    18:00 +22°C° 0 mm 1 mps 752 mmHg 56%
    19:00 +21°C° 0 mm 1 mps 751 mmHg 59%
    20:00 +19°C° 0 mm 1 mps 751 mmHg 61%
    21:00 +18°C° 0 mm 1 mps 751 mmHg 63%
    22:00 +16°C° 0 mm 2 mps 751 mmHg 66%
    23:00 +16°C° 0 mm 2 mps 751 mmHg 69%

    27 August, Tuesday

    Time Temperature Precipitation Wind Pressure Humidity
    00:00 +15°C° 0 mm 2 mps 751 mmHg 71%
    01:00 +15°C° 0 mm 2 mps 750 mmHg 73%
    02:00 +14°C° 0 mm 3 mps 750 mmHg 75%
    03:00 +13°C° 0 mm 3 mps 749 mmHg 78%
    04:00 +13°C° 0 mm 3 mps 749 mmHg 79%
    05:00 +13°C° 0 mm 3 mps 749 mmHg 81%
    06:00 +13°C° 0 mm 3 mps 748 mmHg 83%
    07:00 +14°C° 0 mm 4 mps 748 mmHg 80%
    08:00 +17°C° 0 mm 4 mps 748 mmHg 77%
    09:00 +18°C° 0 mm 4 mps 747 mmHg 75%
    10:00 +19°C° 0 mm 5 mps 747 mmHg 71%
    11:00 +21°C° 0 mm 5 mps 747 mmHg 67%
    12:00 +22°C° 0 mm 6 mps 746 mmHg 63%
    13:00 +22°C° 0.5 mm 6 mps 746 mmHg 63%
    14:00 +22°C° 0.5 mm 6 mps 746 mmHg 64%
    15:00 +22°C° 0.5 mm 7 mps 745 mmHg 64%
    16:00 +21°C° 0.4 mm 6 mps 745 mmHg 68%
    17:00 +20°C° 0.4 mm 5 mps 745 mmHg 72%
    18:00 +19°C° 0.4 mm 5 mps 744 mmHg 77%
    19:00 +17°C° 0 mm 5 mps 745 mmHg 78%
    20:00 +16°C° 0 mm 5 mps 745 mmHg 80%
    21:00 +15°C° 0 mm 5 mps 745 mmHg 81%
    22:00 +14°C° 0 mm 5 mps 746 mmHg 82%
    23:00 +12°C° 0 mm 5 mps 746 mmHg 82%

    28 August, Wednesday

    Time Temperature Precipitation Wind Pressure Humidity
    00:00 +10°C° 0 mm 5 mps 747 mmHg 82%
    01:00 +10°C° 0 mm 4 mps 747 mmHg 82%
    02:00 +8°C° 0 mm 4 mps 747 mmHg 82%
    03:00 +7°C° 0 mm 4 mps 747 mmHg 82%
    04:00 +6°C° 0 mm 4 mps 748 mmHg 82%
    05:00 +6°C° 0 mm 4 mps 748 mmHg 82%
    06:00 +6°C° 0 mm 4 mps 748 mmHg 82%
    07:00 +6°C° 0 mm 5 mps 748 mmHg 76%
    08:00 +7°C° 0 mm 6 mps 749 mmHg 71%
    09:00 +8°C° 0 mm 7 mps 749 mmHg 65%
    10:00 +9°C° 0 mm 7 mps 749 mmHg 63%
    11:00 +10°C° 0 mm 7 mps 749 mmHg 60%
    12:00 +10°C° 0 mm 7 mps 749 mmHg 57%
    13:00 +11°C° 0 mm 7 mps 749 mmHg 56%
    14:00 +11°C° 0 mm 7 mps 749 mmHg 56%
    15:00 +11°C° 0 mm 6 mps 749 mmHg 55%
    16:00 +11°C° 0 mm 6 mps 749 mmHg 57%
    17:00 +12°C° 0 mm 5 mps 749 mmHg 59%
    18:00 +10°C° 0 mm 5 mps 749 mmHg 61%
    19:00 +10°C° 0 mm 4 mps 750 mmHg 66%
    20:00 +8°C° 0 mm 4 mps 750 mmHg 70%
    21:00 +8°C° 0 mm 3 mps 750 mmHg 75%
    22:00 +7°C° 0 mm 3 mps 750 mmHg 77%
    23:00 +7°C° 0 mm 3 mps 750 mmHg 79%

    29 August, Thursday

    Time Temperature Precipitation Wind Pressure Humidity
    00:00 +7°C° 0 mm 3 mps 751 mmHg 81%
    01:00 +5°C° 0 mm 3 mps 751 mmHg 83%
    02:00 +5°C° 0 mm 3 mps 750 mmHg 85%
    03:00 +5°C° 0 mm 3 mps 750 mmHg 87%
    04:00 +4°C° 0 mm 3 mps 750 mmHg 88%
    05:00 +4°C° 0 mm 3 mps 750 mmHg 89%
    06:00 +4°C° 0 mm 4 mps 751 mmHg 90%
    07:00 +6°C° 0 mm 4 mps 751 mmHg 83%
    08:00 +7°C° 0 mm 5 mps 751 mmHg 75%
    09:00 +9°C° 0 mm 6 mps 751 mmHg 68%
    10:00 +10°C° 0 mm 6 mps 750 mmHg 65%
    11:00 +11°C° 0 mm 6 mps 750 mmHg 61%
    12:00 +13°C° 0 mm 6 mps 750 mmHg 58%
    13:00 +13°C° 0 mm 6 mps 750 mmHg 56%
    14:00 +14°C° 0 mm 6 mps 750 mmHg 55%
    15:00 +14°C° 0 mm 6 mps 750 mmHg 54%
    16:00 +14°C° 0 mm 5 mps 750 mmHg 57%
    17:00 +13°C° 0 mm 5 mps 750 mmHg 60%
    18:00 +13°C° 0 mm 4 mps 750 mmHg 63%
    19:00 +11°C° 0 mm 3 mps 750 mmHg 66%
    20:00 +10°C° 0 mm 3 mps 750 mmHg 70%
    21:00 +9°C° 0 mm 3 mps 750 mmHg 74%
    22:00 +8°C° 0 mm 3 mps 750 mmHg 76%
    23:00 +8°C° 0 mm 2 mps 751 mmHg 77%
    Show more